アトラス彗星

C/2019 T4 ( ATLAS )

English version
Home page
Updated on August 15, 2020

---------------------------------------------------------------------

・ プロフィール

発見日 2019年10月9日
発見光度 19.3等
発見者 Asteroid Terrestrial-Impact Last Alert System (ATLAS) search program

・ 写真集

・ 軌道要素

Epoch 2022 May 21.0 TT = JDT 2459720.5
T 2022 June  9.15169 TT                                 Rudenko
q   4.2425304            (2000.0)            P               Q
z  +0.0009961      Peri.  351.20011     -0.95992689     +0.05604011
 +/-0.0000030      Node   199.93937     -0.18195686     -0.86982850
e   0.9957740      Incl.   53.62862     -0.21314799     +0.49016109
From 187 observations 2019 Feb. 5-2020 May 20, mean residual 0".3.

・ 星図

・ 光度変化

        m1 = -9.0 + 5 logΔ + 25   log r  [    ,-760]  (              〜2020年 5月10日)
        m1 =  4.0 + 5 logΔ + 10.0 log r  [-760,    ]  (2020年 5月10日〜              )

---------------------------------------------------------------------

軌道要素はM.P.E.C. 2020-L06に掲載されたものです。
星図はステラナビゲータ Ver.10 (アストロアーツ) で作成したものです。
光度グラフはComet for Windowsで作成したものです。

---------------------------------------------------------------------

Copyright(C) Seiichi Yoshida (comet@aerith.net). All rights reserved.